| time (UTC) | temp F | wind direction | speed MPH | gust MPH | rain 1hr in | rain 24hr in | rain mn in | humidity % | barometer mb |
| 20260504050004 | 50 | 4 | 0.0 | 0.0 | 0.00 | 0.00 | 0.00 | 77 | 1013.0 |
| 20260504045505 | 51 | 4 | 0.0 | 0.0 | 0.00 | 0.00 | 0.00 | 76 | 1013.0 |
| 20260504045005 | 51 | 4 | 0.0 | 0.0 | 0.00 | 0.00 | 0.00 | 76 | 1013.1 |
| 20260504044505 | 51 | 4 | 0.0 | 0.0 | 0.00 | 0.00 | 0.00 | 76 | 1013.1 |
| 20260504044004 | 51 | 4 | 0.0 | 0.0 | 0.00 | 0.00 | 0.00 | 77 | 1013.2 |
| 20260504043505 | 51 | 4 | 0.0 | 0.0 | 0.00 | 0.00 | 0.00 | 77 | 1013.1 |
| 20260504043004 | 51 | 4 | 0.0 | 0.0 | 0.00 | 0.00 | 0.00 | 77 | 1013.1 |
| 20260504042504 | 51 | 4 | 0.0 | 0.0 | 0.00 | 0.00 | 0.00 | 76 | 1013.0 |
| 20260504042005 | 52 | 4 | 0.0 | 0.0 | 0.00 | 0.00 | 0.00 | 76 | 1013.0 |
| 20260504041505 | 52 | 4 | 0.0 | 0.0 | 0.00 | 0.00 | 0.00 | 75 | 1013.0 |
| 20260504041004 | 52 | 4 | 0.0 | 0.0 | 0.00 | 0.01 | 0.00 | 76 | 1012.9 |
| 20260504040505 | 52 | 4 | 0.0 | 0.0 | 0.00 | 0.01 | 0.00 | 75 | 1012.6 |
| 20260504035005 | 53 | 4 | 0.0 | 0.0 | 0.00 | 0.01 | 0.00 | 71 | 1012.6 |
| 20260504034504 | 53 | 4 | 0.0 | 0.0 | 0.00 | 0.01 | 0.00 | 70 | 1012.5 |
| 20260504034005 | 53 | 4 | 0.0 | 0.0 | 0.00 | 0.01 | 0.00 | 69 | 1012.4 |
| 20260504033504 | 53 | 4 | 1.0 | 3.0 | 0.00 | 0.01 | 0.00 | 67 | 1012.1 |
| 20260504033004 | 53 | 35 | 4.0 | 6.0 | 0.00 | 0.01 | 0.00 | 66 | 1012.0 |
| 20260504032505 | 53 | 143 | 0.0 | 0.0 | 0.00 | 0.01 | 0.00 | 65 | 1012.0 |
| 20260504032004 | 53 | 143 | 0.0 | 0.0 | 0.00 | 0.01 | 0.00 | 65 | 1011.9 |
| 20260504031504 | 53 | 143 | 0.0 | 0.0 | 0.00 | 0.01 | 0.00 | 66 | 1012.0 |
| 20260504031004 | 53 | 134 | 3.0 | 5.0 | 0.00 | 0.01 | 0.00 | 66 | 1012.1 |
| 20260504030005 | 53 | 145 | 0.0 | 0.0 | 0.00 | 0.01 | 0.00 | 69 | 1012.1 |
| 20260504025505 | 53 | 151 | 2.0 | 3.0 | 0.00 | 0.01 | 0.00 | 69 | 1012.1 |
| 20260504024504 | 54 | 210 | 0.0 | 0.0 | 0.00 | 0.01 | 0.00 | 70 | 1012.2 |
| 20260504023504 | 54 | 210 | 0.0 | 0.0 | 0.00 | 0.01 | 0.00 | 70 | 1012.4 |
| 20260504023004 | 54 | 210 | 0.0 | 0.0 | 0.00 | 0.01 | 0.00 | 70 | 1012.5 |
| 20260504022504 | 54 | 210 | 0.0 | 0.0 | 0.00 | 0.01 | 0.00 | 69 | 1012.6 |
| 20260504021504 | 54 | 210 | 0.0 | 0.0 | 0.00 | 0.01 | 0.00 | 67 | 1012.9 |
| 20260504021005 | 54 | 210 | 0.0 | 0.0 | 0.00 | 0.01 | 0.00 | 67 | 1013.0 |
| 20260504020505 | 54 | 210 | 0.0 | 0.0 | 0.00 | 0.01 | 0.00 | 65 | 1013.1 |
| 20260504020004 | 55 | 210 | 0.0 | 0.0 | 0.00 | 0.01 | 0.00 | 65 | 1013.2 |
| 20260504015504 | 55 | 210 | 0.0 | 0.0 | 0.00 | 0.01 | 0.00 | 63 | 1013.3 |
| 20260504015005 | 56 | 210 | 0.0 | 6.0 | 0.00 | 0.01 | 0.00 | 62 | 1013.3 |
| 20260504014504 | 56 | 180 | 0.0 | 7.0 | 0.00 | 0.01 | 0.00 | 60 | 1013.3 |
| 20260504014004 | 57 | 155 | 0.0 | 5.0 | 0.00 | 0.01 | 0.00 | 56 | 1013.3 |
| 20260504013504 | 57 | 181 | 1.0 | 10.0 | 0.00 | 0.01 | 0.00 | 56 | 1013.2 |
| 20260504013005 | 57 | 164 | 6.0 | 10.0 | 0.00 | 0.01 | 0.00 | 53 | 1013.2 |
| 20260504012504 | 57 | 182 | 5.0 | 8.0 | 0.00 | 0.01 | 0.00 | 52 | 1013.1 |
| 20260504012005 | 57 | 202 | 5.0 | 9.0 | 0.00 | 0.01 | 0.00 | 51 | 1012.9 |
| 20260504011505 | 57 | 182 | 0.0 | 6.0 | 0.00 | 0.01 | 0.00 | 51 | 1012.7 |
| 20260504011004 | 57 | 187 | 3.0 | 8.0 | 0.00 | 0.01 | 0.00 | 50 | 1012.5 |
| 20260504010504 | 58 | 145 | 4.0 | 9.0 | 0.00 | 0.01 | 0.00 | 50 | 1012.3 |
| 20260504005505 | 58 | 195 | 3.0 | 7.0 | 0.00 | 0.01 | 0.00 | 50 | 1012.0 |
| 20260504005004 | 58 | 179 | 5.0 | 7.0 | 0.00 | 0.01 | 0.00 | 49 | 1011.9 |
| 20260504004504 | 58 | 179 | 3.0 | 8.0 | 0.00 | 0.01 | 0.00 | 49 | 1011.9 |
| 20260504004004 | 57 | 175 | 0.0 | 0.0 | 0.00 | 0.01 | 0.00 | 50 | 1011.8 |
| 20260504003504 | 57 | 175 | 2.0 | 6.0 | 0.00 | 0.01 | 0.00 | 52 | 1011.8 |
| 20260504002504 | 57 | 237 | 3.0 | 7.0 | 0.00 | 0.01 | 0.00 | 53 | 1012.1 |
| 20260504002004 | 57 | 248 | 3.0 | 9.0 | 0.00 | 0.01 | 0.00 | 54 | 1012.3 |
| 20260504001504 | 57 | 252 | 4.0 | 12.0 | 0.00 | 0.01 | 0.00 | 54 | 1012.4 |
| 20260504000504 | 56 | 236 | 5.0 | 12.0 | 0.00 | 0.01 | 0.00 | 58 | 1012.5 |
| 20260504000004 | 56 | 250 | 3.0 | 9.0 | 0.00 | 0.01 | 0.00 | 56 | 1012.6 |
| 20260503235504 | 56 | 236 | 3.0 | 10.0 | 0.00 | 0.01 | 0.00 | 57 | 1012.7 |
| 20260503235004 | 56 | 292 | 3.0 | 12.0 | 0.00 | 0.01 | 0.00 | 57 | 1012.7 |
| 20260503234504 | 56 | 278 | 5.0 | 12.0 | 0.00 | 0.01 | 0.00 | 59 | 1012.7 |
| 20260503234004 | 56 | 288 | 4.0 | 13.0 | 0.00 | 0.01 | 0.00 | 61 | 1012.7 |
| 20260503233504 | 55 | 273 | 3.0 | 8.0 | 0.00 | 0.01 | 0.00 | 62 | 1012.9 |
| 20260503233004 | 54 | 269 | 5.0 | 12.0 | 0.00 | 0.01 | 0.00 | 65 | 1013.0 |
| 20260503232505 | 53 | 275 | 3.0 | 8.0 | 0.00 | 0.01 | 0.00 | 67 | 1013.2 |
| 20260503232004 | 53 | 259 | 3.0 | 8.0 | 0.00 | 0.01 | 0.00 | 67 | 1013.4 |
| 20260503231504 | 53 | 287 | 6.0 | 12.0 | 0.00 | 0.01 | 0.00 | 66 | 1013.8 |
| 20260503231004 | 53 | 281 | 6.0 | 18.0 | 0.00 | 0.01 | 0.00 | 66 | 1014.2 |
| 20260503230505 | 53 | 273 | 7.0 | 15.0 | 0.00 | 0.01 | 0.00 | 65 | 1014.2 |
| 20260503230004 | 53 | 278 | 6.0 | 16.0 | 0.00 | 0.01 | 0.00 | 65 | 1014.2 |
| 20260503225504 | 54 | 252 | 7.0 | 18.0 | 0.00 | 0.01 | 0.00 | 66 | 1014.3 |
| 20260503225005 | 54 | 247 | 9.0 | 18.0 | 0.00 | 0.01 | 0.00 | 65 | 1014.2 |
| 20260503224505 | 54 | 249 | 6.0 | 18.0 | 0.00 | 0.01 | 0.00 | 65 | 1014.1 |
| 20260503224004 | 54 | 252 | 6.0 | 13.0 | 0.00 | 0.01 | 0.00 | 66 | 1013.9 |
| 20260503223504 | 53 | 287 | 9.0 | 17.0 | 0.00 | 0.01 | 0.00 | 67 | 1013.9 |
| 20260503222504 | 53 | 285 | 6.0 | 13.0 | 0.00 | 0.01 | 0.00 | 70 | 1014.4 |
| 20260503222004 | 53 | 289 | 8.0 | 17.0 | 0.00 | 0.01 | 0.00 | 70 | 1014.5 |
| 20260503221504 | 53 | 291 | 8.0 | 17.0 | 0.00 | 0.01 | 0.00 | 69 | 1014.7 |
| 20260503221005 | 53 | 290 | 7.0 | 13.0 | 0.00 | 0.01 | 0.00 | 69 | 1014.6 |
| 20260503220504 | 54 | 268 | 6.0 | 12.0 | 0.00 | 0.01 | 0.00 | 69 | 1014.8 |
| 20260503215504 | 56 | 223 | 8.0 | 17.0 | 0.00 | 0.01 | 0.00 | 60 | 1014.7 |
| 20260503215004 | 58 | 197 | 7.0 | 21.0 | 0.00 | 0.01 | 0.00 | 57 | 1014.5 |
| 20260503214504 | 59 | 264 | 6.0 | 15.0 | 0.00 | 0.01 | 0.00 | 53 | 1014.2 |
| 20260503214004 | 61 | 283 | 6.0 | 30.0 | 0.00 | 0.01 | 0.00 | 48 | 1013.9 |
| 20260503213504 | 64 | 280 | 7.0 | 20.0 | 0.00 | 0.01 | 0.00 | 44 | 1013.2 |
| 20260503213004 | 67 | 254 | 7.0 | 15.0 | 0.00 | 0.01 | 0.00 | 41 | 1011.9 |
| 20260503212505 | 69 | 254 | 6.0 | 15.0 | 0.00 | 0.01 | 0.00 | 35 | 1010.9 |
| 20260503212004 | 70 | 180 | 5.0 | 13.0 | 0.00 | 0.01 | 0.00 | 26 | 1010.1 |
| 20260503211505 | 71 | 345 | 3.0 | 8.0 | 0.00 | 0.01 | 0.00 | 26 | 1010.2 |
| 20260503211004 | 72 | 59 | 3.0 | 7.0 | 0.00 | 0.01 | 0.00 | 25 | 1010.2 |
| 20260503210504 | 73 | 6 | 3.0 | 8.0 | 0.00 | 0.01 | 0.00 | 24 | 1010.2 |
| 20260503210005 | 74 | 7 | 6.0 | 12.0 | 0.00 | 0.01 | 0.00 | 24 | 1010.2 |
| 20260503205504 | 73 | 27 | 6.0 | 12.0 | 0.00 | 0.01 | 0.00 | 26 | 1010.3 |
| 20260503205004 | 72 | 350 | 7.0 | 16.0 | 0.00 | 0.01 | 0.00 | 26 | 1010.4 |
| 20260503204504 | 72 | 346 | 5.0 | 10.0 | 0.00 | 0.01 | 0.00 | 27 | 1010.3 |
| 20260503203504 | 72 | 23 | 7.0 | 14.0 | 0.00 | 0.01 | 0.00 | 27 | 1010.6 |
| 20260503202504 | 71 | 28 | 6.0 | 12.0 | 0.00 | 0.01 | 0.00 | 28 | 1010.8 |
| 20260503202004 | 71 | 356 | 5.0 | 12.0 | 0.00 | 0.01 | 0.00 | 29 | 1010.9 |
| 20260503201504 | 71 | 357 | 5.0 | 13.0 | 0.00 | 0.01 | 0.00 | 29 | 1011.1 |
| 20260503201004 | 70 | 10 | 7.0 | 12.0 | 0.00 | 0.01 | 0.00 | 31 | 1011.2 |
| 20260503200505 | 70 | 323 | 3.0 | 9.0 | 0.00 | 0.01 | 0.00 | 31 | 1011.3 |
| 20260503200004 | 70 | 38 | 7.0 | 14.0 | 0.00 | 0.01 | 0.00 | 32 | 1011.3 |
| 20260503195504 | 70 | 19 | 6.0 | 12.0 | 0.00 | 0.01 | 0.00 | 32 | 1011.4 |
| 20260503195005 | 70 | 20 | 5.0 | 12.0 | 0.00 | 0.01 | 0.00 | 33 | 1011.5 |
| 20260503194504 | 70 | 43 | 10.0 | 14.0 | 0.00 | 0.01 | 0.00 | 32 | 1011.5 |
| 20260503194004 | 70 | 13 | 4.0 | 12.0 | 0.00 | 0.01 | 0.00 | 33 | 1011.7 |
| 20260503193504 | 70 | 42 | 5.0 | 16.0 | 0.00 | 0.01 | 0.00 | 34 | 1011.8 |
| 20260503193004 | 70 | 32 | 7.0 | 13.0 | 0.00 | 0.01 | 0.00 | 33 | 1011.9 |
| 20260503191004 | 70 | 20 | 6.0 | 15.0 | 0.00 | 0.01 | 0.00 | 35 | 1012.1 |
| 20260503190505 | 70 | 357 | 6.0 | 12.0 | 0.00 | 0.01 | 0.00 | 35 | 1012.2 |
| 20260503190004 | 70 | 356 | 6.0 | 12.0 | 0.00 | 0.01 | 0.00 | 35 | 1012.4 |
| 20260503185004 | 69 | 52 | 5.0 | 10.0 | 0.00 | 0.01 | 0.00 | 37 | 1012.7 |
| 20260503184504 | 68 | 19 | 6.0 | 12.0 | 0.00 | 0.01 | 0.00 | 38 | 1012.7 |
| 20260503183505 | 68 | 15 | 9.0 | 14.0 | 0.00 | 0.01 | 0.00 | 37 | 1012.9 |
| 20260503183005 | 67 | 39 | 10.0 | 13.0 | 0.00 | 0.01 | 0.00 | 38 | 1012.9 |
| 20260503182504 | 67 | 43 | 9.0 | 13.0 | 0.00 | 0.01 | 0.00 | 38 | 1013.0 |
| 20260503182005 | 67 | 37 | 7.0 | 12.0 | 0.00 | 0.01 | 0.00 | 38 | 1013.0 |
| 20260503181505 | 67 | 32 | 5.0 | 9.0 | 0.00 | 0.01 | 0.00 | 39 | 1013.0 |
| 20260503181004 | 67 | 14 | 6.0 | 13.0 | 0.00 | 0.01 | 0.00 | 39 | 1013.0 |
| 20260503180504 | 66 | 46 | 4.0 | 9.0 | 0.00 | 0.01 | 0.00 | 40 | 1013.1 |
| 20260503180005 | 67 | 3 | 5.0 | 14.0 | 0.00 | 0.01 | 0.00 | 39 | 1013.3 |
| 20260503175504 | 67 | 25 | 7.0 | 13.0 | 0.00 | 0.01 | 0.00 | 40 | 1013.4 |
| 20260503174505 | 65 | 23 | 6.0 | 10.0 | 0.00 | 0.01 | 0.00 | 42 | 1013.5 |
| 20260503174005 | 64 | 45 | 7.0 | 12.0 | 0.00 | 0.01 | 0.00 | 43 | 1013.5 |
| 20260503173004 | 62 | 343 | 2.0 | 6.0 | 0.00 | 0.01 | 0.00 | 48 | 1013.6 |
| 20260503172504 | 62 | 287 | 0.0 | 0.0 | 0.00 | 0.01 | 0.00 | 56 | 1013.6 |
| 20260503171504 | 61 | 292 | 2.0 | 5.0 | 0.00 | 0.01 | 0.00 | 58 | 1013.7 |
| 20260503171005 | 61 | 280 | 2.0 | 3.0 | 0.00 | 0.01 | 0.00 | 60 | 1013.7 |
| 20260503151004 | 53 | 100 | 0.0 | 0.0 | 0.00 | 0.01 | 0.00 | 77 | 1014.4 |
| 20260503131004 | 46 | 100 | 0.0 | 0.0 | 0.00 | 0.01 | 0.00 | 88 | 1014.2 |
| 20260503130504 | 46 | 100 | 0.0 | 0.0 | 0.00 | 0.01 | 0.00 | 88 | 1014.2 |
| 20260503090505 | 51 | 147 | 0.0 | 0.0 | 0.00 | 0.01 | 0.00 | 83 | 1015.5 |
| 20260503081504 | 52 | 169 | 0.0 | 2.0 | 0.00 | 0.01 | 0.00 | 84 | 1016.0 |
| 20260503081005 | 52 | 181 | 2.0 | 5.0 | 0.00 | 0.01 | 0.00 | 84 | 1016.1 |
| 20260503080505 | 52 | 284 | 0.0 | 0.0 | 0.00 | 0.01 | 0.00 | 84 | 1016.1 |
| 20260503072504 | 53 | 127 | 2.0 | 7.0 | 0.00 | 0.01 | 0.00 | 81 | 1016.3 |
| 20260503072004 | 53 | 166 | 4.0 | 6.0 | 0.00 | 0.01 | 0.00 | 82 | 1016.4 |
| 20260503071504 | 53 | 340 | 0.0 | 0.0 | 0.00 | 0.01 | 0.00 | 82 | 1016.2 |
| 20260503071005 | 52 | 340 | 0.0 | 0.0 | 0.00 | 0.01 | 0.00 | 81 | 1016.2 |
| 20260503070504 | 53 | 340 | 0.0 | 0.0 | 0.00 | 0.01 | 0.00 | 80 | 1016.1 |